TimeMST,TemperatureF,Dew PointF,Humidity,Sea Level PressureIn,VisibilityMPH,Wind Direction,Wind SpeedMPH,Gust SpeedMPH,PrecipitationIn,Events,Conditions,WindDirDegrees,DateUTC
12:53 AM,19.9,10.9,68,29.81,-9999.0,SW,11.5,-,N/A,,Partly Cloudy,230,2013-01-29 07:53:00
1:53 AM,19.0,10.9,71,29.81,-9999.0,SW,11.5,-,N/A,,Scattered Clouds,220,2013-01-29 08:53:00
2:53 AM,19.9,12.0,71,29.80,-9999.0,SW,10.4,-,N/A,,Mostly Cloudy,220,2013-01-29 09:53:00
3:53 AM,19.9,12.9,74,29.80,-9999.0,SW,10.4,-,N/A,,Overcast,220,2013-01-29 10:53:00
4:53 AM,19.9,14.0,78,29.82,-9999.0,SW,15.0,-,N/A,,Overcast,220,2013-01-29 11:53:00
5:53 AM,19.9,14.0,78,29.86,-9999.0,SW,8.1,-,N/A,,Overcast,220,2013-01-29 12:53:00
6:53 AM,19.0,14.0,81,29.90,-9999.0,Calm,Calm,-,N/A,,Overcast,0,2013-01-29 13:53:00
7:53 AM,18.0,12.9,81,29.92,-9999.0,Calm,Calm,-,N/A,,Overcast,0,2013-01-29 14:53:00
8:53 AM,19.9,15.1,81,29.95,-9999.0,Calm,Calm,-,0.00,Snow,Light Snow,0,2013-01-29 15:53:00
9:53 AM,21.0,16.0,81,29.98,-9999.0,Calm,Calm,-,0.00,,Overcast,0,2013-01-29 16:53:00
10:24 AM,21.2,17.6,86,29.84,-9999.0,Calm,Calm,-,0.00,Snow,Light Snow,0,2013-01-29 17:24:00
10:53 AM,21.9,18.0,85,30.01,-9999.0,Calm,Calm,-,0.00,Snow,Light Snow,0,2013-01-29 17:53:00
11:10 AM,24.8,17.6,74,29.87,-9999.0,North,3.5,-,0.00,Snow,Light Snow,360,2013-01-29 18:10:00
11:53 AM,24.1,17.1,75,30.02,-9999.0,NE,3.5,-,0.00,,Overcast,40,2013-01-29 18:53:00
12:49 PM,23.0,17.6,80,29.89,-9999.0,NE,11.5,-,0.00,Snow,Light Snow,40,2013-01-29 19:49:00
12:53 PM,23.0,18.0,81,30.04,-9999.0,NE,10.4,-,0.00,Snow,Light Snow,50,2013-01-29 19:53:00
1:53 PM,23.0,14.0,68,30.07,-9999.0,ENE,12.7,-,0.00,,Overcast,60,2013-01-29 20:53:00
2:53 PM,21.9,15.1,75,30.09,-9999.0,SSW,27.6,36.8,N/A,,Overcast,200,2013-01-29 21:53:00
3:49 PM,19.4,12.2,74,29.96,-9999.0,SSW,27.6,33.4,0.00,,Squalls,200,2013-01-29 22:49:00
3:53 PM,19.9,12.9,74,30.14,-9999.0,SSW,26.5,34.5,0.00,,Squalls,200,2013-01-29 22:53:00
3:59 PM,19.4,12.2,74,29.97,-9999.0,SSW,27.6,-,N/A,,Overcast,200,2013-01-29 22:59:00
4:53 PM,19.9,12.9,74,30.16,-9999.0,ENE,4.6,-,0.00,Snow,Light Snow,70,2013-01-29 23:53:00
5:11 PM,19.4,12.2,74,29.99,-9999.0,ENE,8.1,-,0.00,Snow,Light Snow,60,2013-01-30 00:11:00
5:29 PM,17.6,12.2,79,30.00,-9999.0,East,4.6,-,0.00,,Mostly Cloudy,80,2013-01-30 00:29:00
5:53 PM,18.0,12.9,81,30.19,-9999.0,ESE,4.6,-,0.00,,Overcast,120,2013-01-30 00:53:00
6:53 PM,18.0,14.0,84,30.18,-9999.0,NW,3.5,-,0.00,,Mostly Cloudy,310,2013-01-30 01:53:00
7:53 PM,17.1,14.0,88,30.19,-9999.0,Calm,Calm,-,N/A,,Overcast,0,2013-01-30 02:53:00
8:53 PM,18.0,14.0,84,30.17,-9999.0,North,3.5,-,N/A,,Overcast,360,2013-01-30 03:53:00
9:53 PM,18.0,14.0,84,30.15,-9999.0,Calm,Calm,-,N/A,,Overcast,0,2013-01-30 04:53:00
11:53 PM,17.1,10.9,77,30.13,-9999.0,ENE,3.5,-,N/A,,Overcast,70,2013-01-30 06:53:00